CW9688 Weather Reports


time (UTC)temp
C
wind
direction
speed
KPH
gust
KPH
rain 1hr
cm
rain 24hr
cm
rain mn
cm
humidity
%
barometer
mb
20260902123805 13 155 3.2 4.8 0.00 0.00 0.00 70 1013.3
20260902123304 13 155 3.2 4.8 0.00 0.00 0.00 72 1013.3
20260902122805 13 254 1.6 3.2 0.00 0.00 0.00 74 1013.3
20260902121804 13 254 1.6 3.2 0.00 0.00 0.00 75 1013.3
20260902121305 13 254 0.0 0.0 0.00 0.00 0.00 75 1013.3
20260902120804 13 254 0.0 0.0 0.00 0.00 0.00 74 1013.3
20260902115308 13 254 0.0 1.6 0.00 0.00 0.00 72 1013.3
20260902114805 14 254 0.0 1.6 0.00 0.00 0.00 72 1013.3
20260902113804 14 254 1.6 4.8 0.00 0.00 0.00 70 1013.3
20260902112805 14 254 0.0 0.0 0.00 0.00 0.00 69 1013.3
20260902112306 14 254 0.0 0.0 0.00 0.00 0.00 69 1013.3
20260902105805 14 254 0.0 3.2 0.00 0.00 0.00 69 1013.3
20260902105306 14 254 1.6 3.2 0.00 0.00 0.00 68 1013.3
20260902104805 14 254 0.0 1.6 0.00 0.00 0.00 67 1013.3
20260902103805 14 254 3.2 3.2 0.00 0.00 0.00 68 1013.3
20260902103305 14 254 1.6 3.2 0.00 0.00 0.00 67 1013.3
20260902102806 15 254 0.0 0.0 0.00 0.00 0.00 66 1013.3
20260902102307 15 254 1.6 3.2 0.00 0.00 0.00 67 1013.3
20260902101805 15 254 1.6 3.2 0.00 0.00 0.00 66 1013.3
20260902101304 15 254 0.0 1.6 0.00 0.00 0.00 65 1013.3
20260902094805 15 200 1.6 4.8 0.00 0.00 0.00 66 1013.3
20260902093305 16 200 0.0 4.8 0.00 0.00 0.00 61 1013.3
20260902092805 16 200 3.2 4.8 0.00 0.00 0.00 62 1013.3
20260902092305 16 200 4.8 4.8 0.00 0.00 0.00 63 1013.3
20260902091805 16 200 0.0 0.0 0.00 0.00 0.00 63 1013.3
20260902090305 16 200 3.2 4.8 0.00 0.00 0.00 61 1013.3
20260902085306 16 200 1.6 4.8 0.00 0.00 0.00 65 1013.3
20260902083305 16 200 1.6 3.2 0.00 0.00 0.00 62 1013.3
20260902082805 17 200 1.6 3.2 0.00 0.00 0.00 61 1013.3
20260902082309 17 200 0.0 1.6 0.00 0.00 0.00 60 1013.3
20260902073305 18 205 1.6 3.2 0.00 0.00 0.00 55 1013.3
20260902071804 18 281 3.2 8.0 0.00 0.00 0.00 57 1013.3
20260902070805 18 255 3.2 4.8 0.00 0.00 0.00 59 1013.3
20260902065805 17 302 1.6 3.2 0.00 0.00 0.00 61 1013.3
20260902065307 18 302 0.0 3.2 0.00 0.00 0.00 60 1013.3
20260902064305 18 244 1.6 3.2 0.00 0.00 0.00 59 1013.3
20260902060304 20 265 4.8 8.0 0.00 0.00 0.00 54 1013.3
20260902055804 20 272 6.4 12.9 0.00 0.00 0.00 54 1013.3
20260902055307 20 300 4.8 11.3 0.00 0.00 0.00 55 1013.3
20260902054804 20 303 4.8 11.3 0.00 0.00 0.00 55 1013.3
20260902054305 20 296 4.8 8.0 0.00 0.00 0.00 56 1013.3
20260902053805 19 340 3.2 8.0 0.00 0.00 0.00 57 1013.3
20260902053305 19 298 4.8 8.0 0.00 0.00 0.00 58 1013.3
20260902050805 21 319 1.6 9.7 0.00 0.00 0.00 54 1013.3
20260902050304 21 280 3.2 4.8 0.00 0.00 0.00 55 1013.3
20260902044304 21 12 1.6 4.8 0.00 0.00 0.00 55 1013.3
20260902043804 21 289 3.2 8.0 0.00 0.00 0.00 57 1013.3
20260902042805 20 32 4.8 8.0 0.00 0.00 0.00 57 1013.3
20260902042308 20 34 3.2 4.8 0.00 0.00 0.00 58 1013.3
20260902041805 20 49 3.2 4.8 0.00 0.00 0.00 58 1013.3
20260902041305 20 34 1.6 4.8 0.00 0.00 0.00 59 1013.3
20260902035805 20 51 3.2 4.8 0.00 0.00 0.00 59 1013.3
20260902034805 20 53 3.2 4.8 0.00 0.00 0.00 58 1013.3
20260902033805 20 29 1.6 3.2 0.00 0.00 0.00 56 1013.3
20260902033304 21 29 1.6 3.2 0.00 0.00 0.00 54 1013.3
20260902032306 21 15 1.6 3.2 0.00 0.00 0.00 53 1013.3
20260902030305 21 51 1.6 1.6 0.00 0.03 0.00 51 1013.3
20260902025804 22 51 0.0 1.6 0.00 0.05 0.00 49 1013.3
20260902025306 22 51 3.2 8.0 0.00 0.05 0.00 48 1013.3
20260902024805 22 43 3.2 4.8 0.00 0.05 0.00 47 1013.3
20260902023305 23 17 3.2 8.0 0.00 0.05 0.00 42 1013.3
20260902021804 24 52 8.0 16.1 0.00 0.05 0.00 42 1013.3
20260902021305 24 25 4.8 12.9 0.00 0.05 0.00 43 1013.3
20260902020804 24 15 9.7 12.9 0.00 0.05 0.00 45 1013.3
20260902020304 24 349 4.8 11.3 0.00 0.05 0.00 46 1013.3
20260902014305 24 350 9.7 14.5 0.00 0.05 0.00 52 1013.3
20260902013305 26 3 4.8 11.3 0.00 0.05 0.00 39 1013.3
20260902012804 26 335 3.2 4.8 0.00 0.05 0.00 38 1013.3
20260902012309 26 300 0.0 3.2 0.00 0.05 0.00 36 1013.3
20260902010306 26 19 0.0 4.8 0.00 0.18 0.00 37 1013.3
20260902005805 27 19 1.6 4.8 0.00 0.20 0.00 34 1013.3
20260902005306 27 98 0.0 3.2 0.00 0.20 0.00 35 1013.3
20260902003805 27 355 0.0 1.6 0.00 0.20 0.00 36 1013.3
20260902003305 27 355 0.0 3.2 0.00 0.20 0.00 36 1013.3
20260902002805 27 356 1.6 4.8 0.00 0.20 0.00 34 1013.3
20260902002306 27 11 0.0 1.6 0.00 0.20 0.00 34 1013.3
20260902001804 27 11 1.6 3.2 0.00 0.20 0.00 33 1013.3
20260902000305 27 31 3.2 4.8 0.00 0.20 0.00 32 1013.3
20260901234805 28 82 8.0 12.9 0.00 0.20 0.00 29 1013.3
20260901234305 28 60 4.8 9.7 0.00 0.20 0.00 30 1013.3
20260901233805 29 57 4.8 11.3 0.00 0.20 0.00 28 1013.3
20260901233305 29 62 4.8 14.5 0.00 0.20 0.00 29 1013.3
20260901232805 29 78 6.4 11.3 0.00 0.20 0.00 29 1013.3
20260901231304 30 282 1.6 8.0 0.00 0.20 0.00 28 1013.3
20260901230805 30 323 4.8 11.3 0.00 0.20 0.00 27 1013.3
20260901225804 31 14 4.8 9.7 0.00 0.20 0.00 26 1013.3
20260901224805 31 81 3.2 8.0 0.00 0.20 0.00 29 1013.3
20260901224304 31 91 4.8 19.3 0.00 0.20 0.00 26 1013.3
20260901221804 31 166 9.7 19.3 0.00 0.20 0.00 25 1013.3
20260901220304 29 108 19.3 41.8 0.00 0.20 0.00 30 1013.3
20260901215805 29 176 9.7 27.4 0.00 0.20 0.00 30 1013.3
20260901214804 28 230 8.0 12.9 0.00 0.20 0.00 30 1013.3
20260901214305 28 223 8.0 12.9 0.00 0.20 0.00 30 1013.3
20260901213305 29 256 4.8 12.9 0.00 0.20 0.00 28 1013.3
20260901212805 30 145 8.0 16.1 0.00 0.20 0.00 29 1013.3
20260901212306 29 172 9.7 14.5 0.00 0.20 0.00 30 1013.3
20260901211804 29 265 3.2 11.3 0.00 0.20 0.00 28 1013.3
20260901205306 31 94 8.0 16.1 0.00 0.20 0.00 28 1013.3
20260901204305 31 161 8.0 14.5 0.00 0.20 0.00 31 1013.3
20260901203804 30 170 9.7 14.5 0.00 0.20 0.00 28 1013.3
20260901203304 31 163 8.0 14.5 0.00 0.20 0.00 27 1013.3
20260901202306 31 155 11.3 19.3 0.00 0.20 0.00 28 1013.3
20260901201804 31 51 4.8 19.3 0.00 0.20 0.00 27 1013.3
20260901200805 31 137 8.0 19.3 0.00 0.20 0.00 29 1013.3
20260901200304 31 103 9.7 19.3 0.00 0.20 0.00 29 1013.3
20260901195306 31 103 14.5 19.3 0.00 0.20 0.00 28 1013.3
20260901194804 30 163 9.7 14.5 0.00 0.20 0.00 28 1013.3
20260901194305 31 119 9.7 19.3 0.00 0.20 0.00 29 1013.3
20260901192804 30 144 9.7 19.3 0.00 0.20 0.00 31 1013.3
20260901192306 30 150 11.3 19.3 0.00 0.20 0.00 32 1013.3
20260901190305 29 76 9.7 14.5 0.00 0.20 0.00 31 1013.3
20260901185805 29 168 9.7 19.3 0.00 0.20 0.00 34 1013.3
20260901185306 29 149 11.3 22.5 0.00 0.20 0.00 37 1013.3
20260901184805 28 119 9.7 19.3 0.00 0.20 0.00 37 1013.3
20260901183304 28 117 11.3 19.3 0.00 0.20 0.00 38 1013.3
20260901182804 28 130 4.8 22.5 0.00 0.20 0.00 39 1013.3
20260901181304 27 161 9.7 12.9 0.00 0.20 0.00 36 1013.3
20260901180804 27 148 9.7 19.3 0.00 0.20 0.00 40 1013.3
20260901175805 27 132 8.0 12.9 0.00 0.20 0.00 44 1013.3
20260901174305 27 99 4.8 9.7 0.00 0.20 0.00 47 1013.3
20260901173804 27 100 9.7 14.5 0.00 0.20 0.00 48 1013.3
20260901173304 26 149 9.7 19.3 0.00 0.20 0.00 48 1013.3
20260901172804 26 134 6.4 14.5 0.00 0.20 0.00 50 1013.3
20260901172305 26 175 8.0 16.1 0.00 0.20 0.00 49 1013.3
20260901170804 25 201 4.8 11.3 0.00 0.20 0.00 51 1013.3
20260901163304 23 160 8.0 12.9 0.00 0.20 0.00 62 1013.3
20260901162306 22 112 8.0 12.9 0.00 0.20 0.00 64 1013.3
20260901161804 22 169 8.0 16.1 0.00 0.20 0.00 70 1013.3
20260901160804 20 174 3.2 4.8 0.00 0.20 0.00 73 1013.3
20260901155306 19 179 0.0 4.8 0.00 0.20 0.00 74 1013.3
20260901154805 19 179 4.8 8.0 0.00 0.20 0.00 74 1013.3
20260901153804 20 170 6.4 8.0 0.00 0.20 0.00 75 1013.3
20260901153304 19 166 1.6 4.8 0.00 0.20 0.00 75 1013.3
20260901151804 19 32 0.0 0.0 0.00 0.20 0.00 76 1013.3
20260901151304 18 253 0.0 1.6 0.00 0.20 0.00 76 1013.3
20260901150804 18 0 0.0 0.0 0.00 0.20 0.00 76 1013.3
20260901145306 18 304 1.6 8.0 0.00 0.20 0.00 79 1013.3
20260901144305 18 226 0.0 3.2 0.00 0.20 0.00 80 1013.3
20260901143305 18 201 1.6 4.8 0.00 0.20 0.00 80 1013.3
20260901142306 17 232 1.6 4.8 0.00 0.20 0.00 81 1013.3
20260901141805 17 254 0.0 3.2 0.00 0.20 0.00 81 1013.3
20260901141305 17 198 3.2 4.8 0.00 0.20 0.00 81 1013.3
20260901135305 17 176 0.0 0.0 0.00 0.20 0.00 83 1013.3
20260901134804 17 176 0.0 3.2 0.00 0.20 0.00 83 1013.3
20260901133304 16 188 3.2 8.0 0.00 0.20 0.00 85 1013.3
20260901131304 16 169 1.6 8.0 0.00 0.20 0.00 86 1013.3
20260901125804 16 283 0.0 3.2 0.00 0.20 0.00 86 1013.3